Time,TemperatureF,DewpointF,PressureIn,WindDirection,WindDirectionDegrees,WindSpeedMPH,WindSpeedGustMPH,Humidity,HourlyPrecipIn,Conditions,Clouds,dailyrainin,SoftwareType,DateUTC
2013-02-18 00:02:00,57.6,44.6,29.86,South,180,15.7,22.6,62,0.00,,,0.00,WUHU216HW,2013-02-18 06:02:00,
2013-02-18 00:07:00,57.4,44.9,29.86,South,180,13.2,18.3,63,0.00,,,0.00,WUHU216HW,2013-02-18 06:07:00,
2013-02-18 00:12:00,57.4,44.9,29.86,SSW,203,15.2,19.5,63,0.00,,,0.00,WUHU216HW,2013-02-18 06:12:00,
2013-02-18 00:17:00,57.2,44.7,29.86,SSE,158,11.6,19.5,63,0.00,,,0.00,WUHU216HW,2013-02-18 06:17:00,
2013-02-18 00:22:00,57.2,45.2,29.86,SSW,203,14.3,16.8,64,0.00,,,0.00,WUHU216HW,2013-02-18 06:22:00,
2013-02-18 00:28:00,57.1,45.0,29.86,South,180,9.6,16.8,64,0.00,,,0.00,WUHU216HW,2013-02-18 06:28:00,
2013-02-18 00:33:00,56.9,44.8,29.86,South,180,11.9,16.3,64,0.00,,,0.00,WUHU216HW,2013-02-18 06:33:00,
2013-02-18 00:38:00,56.9,44.8,29.86,SSE,158,17.2,17.2,64,0.00,,,0.00,WUHU216HW,2013-02-18 06:38:00,
2013-02-18 00:43:00,56.9,44.8,29.86,SSE,158,15.4,19.2,64,0.00,,,0.00,WUHU216HW,2013-02-18 06:43:00,
2013-02-18 00:48:00,56.9,45.2,29.85,SSE,158,9.6,17.0,65,0.00,,,0.00,WUHU216HW,2013-02-18 06:48:00,
2013-02-18 00:53:00,56.7,45.0,29.85,South,180,10.7,17.0,65,0.00,,,0.00,WUHU216HW,2013-02-18 06:53:00,
2013-02-18 00:58:00,56.7,45.5,29.85,South,180,11.9,19.0,66,0.00,,,0.00,WUHU216HW,2013-02-18 06:58:00,
2013-02-18 01:04:00,56.5,45.3,29.85,South,180,18.6,19.0,66,0.00,,,0.00,WUHU216HW,2013-02-18 07:04:00,
2013-02-18 01:09:00,56.7,45.5,29.85,SSE,158,13.4,18.6,66,0.00,,,0.00,WUHU216HW,2013-02-18 07:09:00,
2013-02-18 01:14:00,56.7,45.5,29.85,South,180,10.5,18.6,66,0.00,,,0.00,WUHU216HW,2013-02-18 07:14:00,
2013-02-18 01:19:00,56.5,45.6,29.84,South,180,10.1,17.0,67,0.00,,,0.00,WUHU216HW,2013-02-18 07:19:00,
2013-02-18 01:24:00,56.5,45.6,29.84,South,180,12.8,17.0,67,0.00,,,0.00,WUHU216HW,2013-02-18 07:24:00,
2013-02-18 01:29:00,56.5,45.6,29.84,South,180,13.2,16.6,67,0.00,,,0.00,WUHU216HW,2013-02-18 07:29:00,
2013-02-18 01:34:00,56.5,45.6,29.84,SSE,158,17.0,17.0,67,0.00,,,0.00,WUHU216HW,2013-02-18 07:34:00,
2013-02-18 01:40:00,56.5,45.6,29.83,SSW,203,12.8,17.0,67,0.00,,,0.00,WUHU216HW,2013-02-18 07:40:00,
2013-02-18 01:45:00,56.7,45.8,29.83,South,180,12.5,19.5,67,0.00,,,0.00,WUHU216HW,2013-02-18 07:45:00,
2013-02-18 01:50:00,56.7,45.8,29.83,South,180,12.1,19.5,67,0.00,,,0.00,WUHU216HW,2013-02-18 07:50:00,
2013-02-18 01:55:00,56.5,46.1,29.83,SSE,158,10.5,17.9,68,0.00,,,0.00,WUHU216HW,2013-02-18 07:55:00,
2013-02-18 02:00:00,56.5,46.1,29.83,South,180,14.3,17.7,68,0.00,,,0.00,WUHU216HW,2013-02-18 08:00:00,
2013-02-18 02:05:00,56.5,46.1,29.83,SSE,158,10.7,17.7,68,0.00,,,0.00,WUHU216HW,2013-02-18 08:05:00,
2013-02-18 02:10:00,56.3,45.9,29.83,SSW,203,10.1,15.0,68,0.00,,,0.00,WUHU216HW,2013-02-18 08:10:00,
2013-02-18 02:16:00,56.5,46.1,29.83,South,180,12.8,14.8,68,0.00,,,0.00,WUHU216HW,2013-02-18 08:16:00,
2013-02-18 02:21:00,56.3,46.3,29.83,South,180,7.4,15.4,69,0.00,,,0.00,WUHU216HW,2013-02-18 08:21:00,
2013-02-18 02:26:00,56.3,46.3,29.82,South,180,12.3,15.9,69,0.00,,,0.00,WUHU216HW,2013-02-18 08:26:00,
2013-02-18 02:31:00,56.3,46.3,29.82,South,180,10.5,15.9,69,0.00,,,0.00,WUHU216HW,2013-02-18 08:31:00,
2013-02-18 02:36:00,56.3,46.3,29.82,South,180,14.3,15.7,69,0.00,,,0.00,WUHU216HW,2013-02-18 08:36:00,
2013-02-18 02:41:00,56.3,46.3,29.82,SSE,158,13.0,15.2,69,0.00,,,0.00,WUHU216HW,2013-02-18 08:41:00,
2013-02-18 02:46:00,56.3,46.3,29.81,SSE,158,9.2,19.0,69,0.00,,,0.00,WUHU216HW,2013-02-18 08:46:00,
2013-02-18 02:52:00,56.3,46.7,29.81,SSE,158,10.5,19.0,70,0.00,,,0.00,WUHU216HW,2013-02-18 08:52:00,
2013-02-18 02:57:00,56.3,46.7,29.81,South,180,11.4,16.1,70,0.00,,,0.00,WUHU216HW,2013-02-18 08:57:00,
2013-02-18 03:02:00,56.3,46.7,29.81,SSE,158,11.4,17.9,70,0.00,,,0.00,WUHU216HW,2013-02-18 09:02:00,
2013-02-18 03:07:00,56.3,46.7,29.80,South,180,13.9,17.9,70,0.00,,,0.00,WUHU216HW,2013-02-18 09:07:00,
2013-02-18 03:12:00,56.3,46.7,29.80,SSE,158,11.0,15.9,70,0.00,,,0.00,WUHU216HW,2013-02-18 09:12:00,
2013-02-18 03:17:00,56.2,46.5,29.80,SSE,158,9.4,12.8,70,0.00,,,0.00,WUHU216HW,2013-02-18 09:17:00,
2013-02-18 03:22:00,56.2,46.5,29.79,SE,135,15.7,15.7,70,0.00,,,0.00,WUHU216HW,2013-02-18 09:22:00,
2013-02-18 03:28:00,56.0,46.4,29.79,SSE,158,10.7,15.7,70,0.00,,,0.00,WUHU216HW,2013-02-18 09:28:00,
2013-02-18 03:33:00,55.8,46.3,29.79,SSE,158,12.3,15.2,70,0.00,,,0.00,WUHU216HW,2013-02-18 09:33:00,
2013-02-18 03:38:00,55.8,46.3,29.79,SSE,158,9.8,16.1,70,0.00,,,0.00,WUHU216HW,2013-02-18 09:38:00,
2013-02-18 03:43:00,55.8,46.5,29.79,SSE,158,11.6,16.1,71,0.00,,,0.00,WUHU216HW,2013-02-18 09:43:00,
2013-02-18 03:48:00,55.6,46.5,29.78,SSE,158,11.6,14.3,71,0.00,,,0.00,WUHU216HW,2013-02-18 09:48:00,
2013-02-18 03:53:00,55.6,46.5,29.78,South,180,13.9,14.3,71,0.00,,,0.00,WUHU216HW,2013-02-18 09:53:00,
2013-02-18 03:58:00,55.6,46.5,29.78,SSE,158,10.1,15.7,71,0.00,,,0.00,WUHU216HW,2013-02-18 09:58:00,
2013-02-18 04:04:00,55.6,46.7,29.78,SSE,158,11.9,17.7,72,0.00,,,0.00,WUHU216HW,2013-02-18 10:04:00,
2013-02-18 04:09:00,55.8,46.9,29.78,SSE,158,13.0,17.7,72,0.00,,,0.00,WUHU216HW,2013-02-18 10:09:00,
2013-02-18 04:14:00,55.8,46.9,29.78,South,180,11.9,13.2,72,0.00,,,0.00,WUHU216HW,2013-02-18 10:14:00,
2013-02-18 04:19:00,55.8,46.9,29.78,SSW,203,8.1,16.6,72,0.00,,,0.00,WUHU216HW,2013-02-18 10:19:00,
2013-02-18 04:24:00,55.8,47.3,29.78,SSE,158,16.6,16.6,73,0.00,,,0.00,WUHU216HW,2013-02-18 10:24:00,
2013-02-18 04:29:00,55.8,47.3,29.77,South,180,12.8,16.6,73,0.00,,,0.00,WUHU216HW,2013-02-18 10:29:00,
2013-02-18 04:34:00,56.0,47.4,29.77,South,180,10.3,19.9,73,0.00,,,0.00,WUHU216HW,2013-02-18 10:34:00,
2013-02-18 04:40:00,56.0,47.4,29.78,SSE,158,9.8,19.9,73,0.00,,,0.00,WUHU216HW,2013-02-18 10:40:00,
2013-02-18 04:45:00,56.0,47.4,29.77,South,180,13.4,15.7,73,0.00,,,0.00,WUHU216HW,2013-02-18 10:45:00,
2013-02-18 04:50:00,56.0,47.4,29.77,SSW,203,8.5,16.1,73,0.00,,,0.00,WUHU216HW,2013-02-18 10:50:00,
2013-02-18 04:55:00,56.0,47.4,29.77,SW,225,11.0,16.3,73,0.00,,,0.00,WUHU216HW,2013-02-18 10:55:00,
2013-02-18 05:00:00,56.2,47.6,29.77,SSE,158,12.1,16.3,73,0.00,,,0.00,WUHU216HW,2013-02-18 11:00:00,
2013-02-18 05:05:00,56.2,48.0,29.77,SSW,203,12.1,17.9,74,0.00,,,0.00,WUHU216HW,2013-02-18 11:05:00,
2013-02-18 05:10:00,56.2,48.0,29.77,South,180,16.3,17.9,74,0.00,,,0.00,WUHU216HW,2013-02-18 11:10:00,
2013-02-18 05:16:00,56.3,48.2,29.77,South,180,14.3,16.3,74,0.00,,,0.00,WUHU216HW,2013-02-18 11:16:00,
2013-02-18 05:21:00,56.3,48.2,29.76,SSE,158,15.4,16.3,74,0.00,,,0.00,WUHU216HW,2013-02-18 11:21:00,
2013-02-18 05:26:00,56.5,48.2,29.76,SSW,203,10.1,18.8,74,0.00,,,0.00,WUHU216HW,2013-02-18 11:26:00,
2013-02-18 05:31:00,56.5,48.6,29.76,SSE,158,11.6,15.7,75,0.00,,,0.00,WUHU216HW,2013-02-18 11:31:00,
2013-02-18 05:36:00,56.5,48.6,29.76,South,180,10.3,15.2,75,0.00,,,0.00,WUHU216HW,2013-02-18 11:36:00,
2013-02-18 05:41:00,56.5,48.6,29.76,South,180,12.1,18.6,75,0.00,,,0.00,WUHU216HW,2013-02-18 11:41:00,
2013-02-18 05:46:00,56.5,48.6,29.76,South,180,12.8,18.6,75,0.00,,,0.00,WUHU216HW,2013-02-18 11:46:00,
2013-02-18 05:52:00,56.5,48.6,29.76,South,180,17.2,20.4,75,0.00,,,0.00,WUHU216HW,2013-02-18 11:52:00,
2013-02-18 05:57:00,56.5,48.6,29.76,SSE,158,13.9,20.4,75,0.00,,,0.00,WUHU216HW,2013-02-18 11:57:00,
2013-02-18 06:02:00,56.7,49.1,29.76,South,180,14.8,18.6,76,0.00,,,0.00,WUHU216HW,2013-02-18 12:02:00,
2013-02-18 06:07:00,56.7,49.1,29.76,South,180,9.4,18.6,76,0.00,,,0.00,WUHU216HW,2013-02-18 12:07:00,
2013-02-18 06:12:00,56.7,49.1,29.75,South,180,11.9,15.2,76,0.00,,,0.00,WUHU216HW,2013-02-18 12:12:00,
2013-02-18 06:17:00,56.7,49.1,29.75,SSE,158,14.3,15.2,76,0.00,,,0.00,WUHU216HW,2013-02-18 12:17:00,
2013-02-18 06:22:00,56.7,49.1,29.75,South,180,13.2,17.7,76,0.00,,,0.00,WUHU216HW,2013-02-18 12:22:00,
2013-02-18 06:28:00,56.9,49.3,29.75,SSW,203,9.8,18.6,76,0.00,,,0.00,WUHU216HW,2013-02-18 12:28:00,
2013-02-18 06:33:00,56.9,49.3,29.75,SSE,158,14.3,18.6,76,0.00,,,0.00,WUHU216HW,2013-02-18 12:33:00,
2013-02-18 06:38:00,56.9,49.3,29.75,SSE,158,14.3,19.5,76,0.00,,,0.00,WUHU216HW,2013-02-18 12:38:00,
2013-02-18 06:43:00,57.1,49.5,29.75,SSW,203,12.1,19.5,76,0.00,,,0.00,WUHU216HW,2013-02-18 12:43:00,
2013-02-18 06:48:00,57.2,49.7,29.75,SSE,158,9.8,16.8,76,0.00,,,0.00,WUHU216HW,2013-02-18 12:48:00,
2013-02-18 06:53:00,57.2,49.7,29.75,South,180,13.4,16.3,76,0.00,,,0.00,WUHU216HW,2013-02-18 12:53:00,
2013-02-18 06:58:00,57.2,50.0,29.75,SSE,158,13.2,16.8,77,0.00,,,0.00,WUHU216HW,2013-02-18 12:58:00,
2013-02-18 07:04:00,57.2,50.0,29.75,South,180,11.4,19.2,77,0.00,,,0.00,WUHU216HW,2013-02-18 13:04:00,
2013-02-18 07:09:00,57.2,50.0,29.75,South,180,15.2,19.2,77,0.00,,,0.00,WUHU216HW,2013-02-18 13:09:00,
2013-02-18 07:14:00,57.2,50.0,29.75,South,180,13.2,19.2,77,0.00,,,0.00,WUHU216HW,2013-02-18 13:14:00,
2013-02-18 07:19:00,57.2,50.0,29.75,South,180,13.0,21.5,77,0.00,,,0.00,WUHU216HW,2013-02-18 13:19:00,
2013-02-18 07:24:00,57.2,50.4,29.75,SSW,203,14.1,21.5,78,0.00,,,0.00,WUHU216HW,2013-02-18 13:24:00,
2013-02-18 07:29:00,57.4,50.6,29.75,SSW,203,16.1,19.0,78,0.00,,,0.00,WUHU216HW,2013-02-18 13:29:00,
2013-02-18 07:34:00,57.6,50.8,29.75,SSE,158,14.3,19.0,78,0.00,,,0.00,WUHU216HW,2013-02-18 13:34:00,
2013-02-18 07:40:00,57.6,50.8,29.75,SSW,203,10.5,17.9,78,0.00,,,0.00,WUHU216HW,2013-02-18 13:40:00,
2013-02-18 07:45:00,57.8,50.9,29.75,South,180,15.2,17.9,78,0.00,,,0.00,WUHU216HW,2013-02-18 13:45:00,
2013-02-18 07:50:00,57.8,50.9,29.75,SSE,158,13.2,18.8,78,0.00,,,0.00,WUHU216HW,2013-02-18 13:50:00,
2013-02-18 07:55:00,58.0,51.1,29.75,SSE,158,12.1,18.8,78,0.00,,,0.00,WUHU216HW,2013-02-18 13:55:00,
2013-02-18 08:00:00,58.1,51.3,29.74,SSE,158,15.0,18.3,78,0.00,,,0.00,WUHU216HW,2013-02-18 14:00:00,
2013-02-18 08:05:00,58.3,51.5,29.74,SSE,158,15.7,18.1,78,0.00,,,0.00,WUHU216HW,2013-02-18 14:05:00,
2013-02-18 08:10:00,58.5,51.7,29.74,SSE,158,14.3,18.1,78,0.00,,,0.00,WUHU216HW,2013-02-18 14:10:00,
2013-02-18 08:16:00,58.7,51.8,29.75,SSW,203,15.7,18.1,78,0.00,,,0.00,WUHU216HW,2013-02-18 14:16:00,
2013-02-18 08:21:00,58.9,52.0,29.75,SSW,203,12.5,18.8,78,0.00,,,0.00,WUHU216HW,2013-02-18 14:21:00,
2013-02-18 08:26:00,59.0,52.2,29.74,South,180,15.2,19.9,78,0.00,,,0.00,WUHU216HW,2013-02-18 14:26:00,
2013-02-18 08:31:00,59.2,52.4,29.74,SSW,203,10.3,19.9,78,0.00,,,0.00,WUHU216HW,2013-02-18 14:31:00,
2013-02-18 08:36:00,59.4,52.6,29.75,SSW,203,17.4,17.9,78,0.00,,,0.00,WUHU216HW,2013-02-18 14:36:00,
2013-02-18 08:41:00,59.4,52.6,29.76,South,180,15.0,17.9,78,0.00,,,0.00,WUHU216HW,2013-02-18 14:41:00,
2013-02-18 08:46:00,59.6,52.7,29.76,SW,225,9.8,20.1,78,0.00,,,0.00,WUHU216HW,2013-02-18 14:46:00,
2013-02-18 08:52:00,59.9,53.1,29.75,SSW,203,15.2,20.1,78,0.00,,,0.00,WUHU216HW,2013-02-18 14:52:00,
2013-02-18 08:57:00,60.1,53.3,29.75,South,180,12.3,18.6,78,0.00,,,0.00,WUHU216HW,2013-02-18 14:57:00,
2013-02-18 09:02:00,60.3,53.5,29.76,SSE,158,14.3,18.6,78,0.00,,,0.00,WUHU216HW,2013-02-18 15:02:00,
2013-02-18 09:07:00,60.3,53.5,29.76,SSE,158,12.5,18.6,78,0.00,,,0.00,WUHU216HW,2013-02-18 15:07:00,
2013-02-18 09:12:00,60.7,53.8,29.76,SSW,203,13.4,18.6,78,0.00,,,0.00,WUHU216HW,2013-02-18 15:12:00,
2013-02-18 09:17:00,60.8,53.6,29.76,South,180,13.4,16.1,77,0.00,,,0.00,WUHU216HW,2013-02-18 15:17:00,
2013-02-18 09:22:00,61.0,53.8,29.76,South,180,17.4,17.4,77,0.00,,,0.00,WUHU216HW,2013-02-18 15:22:00,
2013-02-18 09:28:00,61.4,54.1,29.76,South,180,13.4,18.3,77,0.00,,,0.00,WUHU216HW,2013-02-18 15:28:00,
2013-02-18 09:33:00,61.6,54.3,29.76,South,180,16.8,18.3,77,0.00,,,0.00,WUHU216HW,2013-02-18 15:33:00,
2013-02-18 09:38:00,61.6,54.3,29.75,South,180,10.1,17.7,77,0.00,,,0.00,WUHU216HW,2013-02-18 15:38:00,
2013-02-18 09:43:00,62.1,54.8,29.74,SSW,203,15.0,21.9,77,0.00,,,0.00,WUHU216HW,2013-02-18 15:43:00,
2013-02-18 09:48:00,62.3,54.9,29.74,South,180,12.8,21.9,77,0.00,,,0.00,WUHU216HW,2013-02-18 15:48:00,
2013-02-18 09:53:00,63.0,55.3,29.74,SSW,203,20.6,24.4,76,0.00,,,0.00,WUHU216HW,2013-02-18 15:53:00,
2013-02-18 09:58:00,63.4,55.6,29.74,SSW,203,15.2,24.4,76,0.00,,,0.00,WUHU216HW,2013-02-18 15:58:00,
2013-02-18 10:04:00,63.4,55.6,29.74,South,180,19.2,24.2,76,0.00,,,0.00,WUHU216HW,2013-02-18 16:04:00,
2013-02-18 10:09:00,63.5,55.8,29.74,SSW,203,17.2,23.0,76,0.00,,,0.00,WUHU216HW,2013-02-18 16:09:00,
2013-02-18 10:14:00,63.5,55.8,29.74,South,180,9.8,21.7,76,0.00,,,0.00,WUHU216HW,2013-02-18 16:14:00,
2013-02-18 10:19:00,63.7,56.0,29.74,SSW,203,14.5,20.6,76,0.00,,,0.00,WUHU216HW,2013-02-18 16:19:00,
2013-02-18 10:24:00,64.1,56.3,29.74,South,180,12.8,23.0,76,0.00,,,0.00,WUHU216HW,2013-02-18 16:24:00,
2013-02-18 10:29:00,64.4,56.7,29.74,SSE,158,12.5,23.0,76,0.00,,,0.00,WUHU216HW,2013-02-18 16:29:00,
2013-02-18 10:35:00,64.6,56.5,29.74,South,180,13.0,21.0,75,0.00,,,0.00,WUHU216HW,2013-02-18 16:35:00,
2013-02-18 10:40:00,65.2,56.7,29.74,SSE,158,17.9,20.4,74,0.00,,,0.00,WUHU216HW,2013-02-18 16:40:00,
2013-02-18 10:45:00,65.5,56.6,29.74,SSW,203,21.3,26.8,73,0.00,,,0.00,WUHU216HW,2013-02-18 16:45:00,
2013-02-18 10:50:00,65.7,56.8,29.74,SSW,203,13.6,26.8,73,0.00,,,0.00,WUHU216HW,2013-02-18 16:50:00,
2013-02-18 10:55:00,65.9,57.0,29.73,WSW,248,20.8,25.5,73,0.00,,,0.00,WUHU216HW,2013-02-18 16:55:00,
2013-02-18 11:00:00,66.4,57.1,29.73,SW,225,16.3,25.5,72,0.00,,,0.00,WUHU216HW,2013-02-18 17:00:00,
2013-02-18 11:05:00,67.1,57.4,29.73,SW,225,15.0,23.5,71,0.00,,,0.00,WUHU216HW,2013-02-18 17:05:00,
2013-02-18 11:10:00,67.7,57.2,29.73,SSW,203,17.7,26.2,69,0.00,,,0.00,WUHU216HW,2013-02-18 17:10:00,
2013-02-18 11:16:00,68.0,57.1,29.73,SSW,203,19.9,26.2,68,0.00,,,0.00,WUHU216HW,2013-02-18 17:16:00,
2013-02-18 11:21:00,68.4,57.0,29.73,SSW,203,17.2,24.4,67,0.00,,,0.00,WUHU216HW,2013-02-18 17:21:00,
2013-02-18 11:26:00,68.4,57.4,29.73,SSW,203,13.4,24.4,68,0.00,,,0.00,WUHU216HW,2013-02-18 17:26:00,
2013-02-18 11:31:00,68.9,57.1,29.73,SSW,203,23.7,23.7,66,0.00,,,0.00,WUHU216HW,2013-02-18 17:31:00,
2013-02-18 11:36:00,68.8,56.9,29.73,SW,225,11.9,23.7,66,0.00,,,0.00,WUHU216HW,2013-02-18 17:36:00,
2013-02-18 11:41:00,68.8,56.5,29.73,SW,225,20.1,25.3,65,0.00,,,0.00,WUHU216HW,2013-02-18 17:41:00,
2013-02-18 11:47:00,68.9,56.7,29.73,South,180,21.5,26.8,65,0.00,,,0.00,WUHU216HW,2013-02-18 17:47:00,
2013-02-18 11:52:00,69.1,56.4,29.72,SW,225,16.3,28.0,64,0.00,,,0.00,WUHU216HW,2013-02-18 17:52:00,
2013-02-18 11:57:00,69.3,56.2,29.72,SW,225,16.3,28.0,63,0.00,,,0.00,WUHU216HW,2013-02-18 17:57:00,
2013-02-18 12:02:00,69.5,56.4,29.72,SW,225,16.8,24.4,63,0.00,,,0.00,WUHU216HW,2013-02-18 18:02:00,
2013-02-18 12:07:00,69.3,56.6,29.72,SW,225,15.7,23.0,64,0.00,,,0.00,WUHU216HW,2013-02-18 18:07:00,
2013-02-18 12:12:00,69.5,56.8,29.72,SW,225,13.9,23.7,64,0.00,,,0.00,WUHU216HW,2013-02-18 18:12:00,
2013-02-18 12:17:00,70.0,56.9,29.72,SW,225,19.2,23.7,63,0.00,,,0.00,WUHU216HW,2013-02-18 18:17:00,
2013-02-18 12:22:00,70.2,56.6,29.72,SW,225,15.7,22.8,62,0.00,,,0.00,WUHU216HW,2013-02-18 18:22:00,
2013-02-18 12:28:00,70.2,56.6,29.72,WSW,248,15.0,22.8,62,0.00,,,0.00,WUHU216HW,2013-02-18 18:28:00,
2013-02-18 12:33:00,70.4,56.8,29.72,South,180,13.4,20.8,62,0.00,,,0.00,WUHU216HW,2013-02-18 18:33:00,
2013-02-18 12:38:00,70.0,56.9,29.71,SW,225,10.3,19.0,63,0.00,,,0.00,WUHU216HW,2013-02-18 18:38:00,
2013-02-18 12:43:00,70.0,56.9,29.71,SW,225,15.9,17.4,63,0.00,,,0.00,WUHU216HW,2013-02-18 18:43:00,
2013-02-18 12:48:00,70.6,56.5,29.71,SW,225,16.8,17.2,61,0.00,,,0.00,WUHU216HW,2013-02-18 18:48:00,
2013-02-18 12:53:00,72.0,57.4,29.71,SSW,203,20.1,20.1,60,0.00,,,0.00,WUHU216HW,2013-02-18 18:53:00,
2013-02-18 12:59:00,72.4,55.2,29.71,SW,225,13.9,24.8,55,0.00,,,0.00,WUHU216HW,2013-02-18 18:59:00,
2013-02-18 13:04:00,72.7,54.6,29.70,SW,225,17.2,24.8,53,0.00,,,0.00,WUHU216HW,2013-02-18 19:04:00,
2013-02-18 13:09:00,73.4,53.6,29.70,WSW,248,14.3,24.2,50,0.00,,,0.00,WUHU216HW,2013-02-18 19:09:00,
2013-02-18 13:14:00,73.1,52.8,29.70,SW,225,12.8,24.2,49,0.00,,,0.00,WUHU216HW,2013-02-18 19:14:00,
2013-02-18 13:19:00,73.6,53.8,29.69,SW,225,8.9,17.9,50,0.00,,,0.00,WUHU216HW,2013-02-18 19:19:00,
2013-02-18 13:24:00,74.5,53.6,29.69,SW,225,8.5,15.0,48,0.00,,,0.00,WUHU216HW,2013-02-18 19:24:00,
2013-02-18 13:29:00,74.9,53.3,29.69,SW,225,12.5,17.0,47,0.00,,,0.00,WUHU216HW,2013-02-18 19:29:00,
2013-02-18 13:34:00,75.2,52.4,29.69,SW,225,16.3,18.8,45,0.00,,,0.00,WUHU216HW,2013-02-18 19:34:00,
2013-02-18 13:40:00,74.5,52.3,29.69,WSW,248,8.9,18.8,46,0.00,,,0.00,WUHU216HW,2013-02-18 19:40:00,
2013-02-18 13:45:00,75.1,51.0,29.68,WSW,248,12.8,17.2,43,0.00,,,0.00,WUHU216HW,2013-02-18 19:45:00,
2013-02-18 13:50:00,75.8,49.8,29.68,SW,225,10.7,16.3,40,0.00,,,0.00,WUHU216HW,2013-02-18 19:50:00,
2013-02-18 13:55:00,76.7,50.6,29.68,West,270,6.5,16.3,40,0.00,,,0.00,WUHU216HW,2013-02-18 19:55:00,
2013-02-18 14:00:00,77.2,50.3,29.68,West,270,14.3,17.2,39,0.00,,,0.00,WUHU216HW,2013-02-18 20:00:00,
2013-02-18 14:05:00,77.4,47.4,29.68,WSW,248,11.9,20.1,35,0.00,,,0.00,WUHU216HW,2013-02-18 20:05:00,
2013-02-18 14:10:00,77.8,47.8,29.68,WSW,248,12.5,20.1,35,0.00,,,0.00,WUHU216HW,2013-02-18 20:10:00,
2013-02-18 14:16:00,78.1,48.1,29.68,WSW,248,16.1,17.9,35,0.00,,,0.00,WUHU216HW,2013-02-18 20:16:00,
2013-02-18 14:21:00,78.5,46.8,29.68,WSW,248,10.5,17.9,33,0.00,,,0.00,WUHU216HW,2013-02-18 20:21:00,
2013-02-18 14:26:00,77.8,46.3,29.68,WSW,248,10.5,17.0,33,0.00,,,0.00,WUHU216HW,2013-02-18 20:26:00,
2013-02-18 14:31:00,76.5,45.9,29.68,West,270,10.7,21.5,34,0.00,,,0.00,WUHU216HW,2013-02-18 20:31:00,
2013-02-18 14:36:00,76.7,46.1,29.68,West,270,13.4,21.5,34,0.00,,,0.00,WUHU216HW,2013-02-18 20:36:00,
2013-02-18 14:41:00,77.4,46.0,29.68,WNW,293,15.7,17.2,33,0.00,,,0.00,WUHU216HW,2013-02-18 20:41:00,
2013-02-18 14:46:00,77.0,45.6,29.69,West,270,13.0,18.1,33,0.00,,,0.00,WUHU216HW,2013-02-18 20:46:00,
2013-02-18 14:52:00,75.6,44.4,29.69,West,270,19.2,22.4,33,0.00,,,0.00,WUHU216HW,2013-02-18 20:52:00,
2013-02-18 14:57:00,74.3,44.7,29.70,West,270,15.2,22.4,35,0.00,,,0.00,WUHU216HW,2013-02-18 20:57:00,
2013-02-18 15:02:00,74.0,43.7,29.70,WNW,293,21.3,21.5,34,0.00,,,0.00,WUHU216HW,2013-02-18 21:02:00,
2013-02-18 15:07:00,73.8,42.8,29.71,WNW,293,17.0,22.4,33,0.00,,,0.00,WUHU216HW,2013-02-18 21:07:00,
2013-02-18 15:12:00,73.6,43.3,29.72,WNW,293,19.2,22.4,34,0.00,,,0.00,WUHU216HW,2013-02-18 21:12:00,
2013-02-18 15:17:00,73.1,42.1,29.71,NW,315,18.1,25.9,33,0.00,,,0.00,WUHU216HW,2013-02-18 21:17:00,
2013-02-18 15:22:00,72.4,42.3,29.72,WNW,293,18.8,25.9,34,0.00,,,0.00,WUHU216HW,2013-02-18 21:22:00,
2013-02-18 15:28:00,72.0,41.2,29.72,West,270,17.2,23.0,33,0.00,,,0.00,WUHU216HW,2013-02-18 21:28:00,
2013-02-18 15:33:00,71.6,41.0,29.73,West,270,19.2,25.7,33,0.00,,,0.00,WUHU216HW,2013-02-18 21:33:00,
2013-02-18 15:38:00,70.9,39.5,29.73,WNW,293,23.3,25.7,32,0.00,,,0.00,WUHU216HW,2013-02-18 21:38:00,
2013-02-18 15:43:00,70.4,39.8,29.73,West,270,18.6,27.7,33,0.00,,,0.00,WUHU216HW,2013-02-18 21:43:00,
2013-02-18 15:48:00,70.2,39.6,29.73,West,270,12.8,27.7,33,0.00,,,0.00,WUHU216HW,2013-02-18 21:48:00,
2013-02-18 15:53:00,69.8,39.3,29.74,West,270,24.4,24.4,33,0.00,,,0.00,WUHU216HW,2013-02-18 21:53:00,
2013-02-18 15:58:00,69.5,39.0,29.74,WNW,293,23.9,24.4,33,0.00,,,0.00,WUHU216HW,2013-02-18 21:58:00,
2013-02-18 16:04:00,69.3,39.5,29.74,NNW,338,17.4,23.9,34,0.00,,,0.00,WUHU216HW,2013-02-18 22:04:00,
2013-02-18 16:09:00,69.1,40.2,29.75,West,270,13.6,23.7,35,0.00,,,0.00,WUHU216HW,2013-02-18 22:09:00,
2013-02-18 16:14:00,68.8,39.1,29.75,West,270,13.0,22.4,34,0.00,,,0.00,WUHU216HW,2013-02-18 22:14:00,
2013-02-18 16:19:00,68.4,40.2,29.76,West,270,14.8,22.4,36,0.00,,,0.00,WUHU216HW,2013-02-18 22:19:00,
2013-02-18 16:24:00,68.4,41.0,29.76,NW,315,14.5,20.1,37,0.00,,,0.00,WUHU216HW,2013-02-18 22:24:00,
2013-02-18 16:29:00,68.2,40.8,29.76,NW,315,15.4,19.0,37,0.00,,,0.00,WUHU216HW,2013-02-18 22:29:00,
2013-02-18 16:35:00,67.5,40.1,29.77,NW,315,12.3,19.2,37,0.00,,,0.00,WUHU216HW,2013-02-18 22:35:00,
2013-02-18 16:40:00,67.3,40.0,29.77,West,270,23.7,25.1,37,0.00,,,0.00,WUHU216HW,2013-02-18 22:40:00,
2013-02-18 16:45:00,66.6,39.3,29.78,WNW,293,15.4,25.1,37,0.00,,,0.00,WUHU216HW,2013-02-18 22:45:00,
2013-02-18 16:50:00,66.4,39.3,29.78,West,270,16.3,22.4,37,0.00,,,0.00,WUHU216HW,2013-02-18 22:50:00,
2013-02-18 16:55:00,66.1,38.9,29.78,WNW,293,13.0,20.8,37,0.00,,,0.00,WUHU216HW,2013-02-18 22:55:00,
2013-02-18 17:00:00,65.9,39.4,29.79,West,270,13.4,19.9,38,0.00,,,0.00,WUHU216HW,2013-02-18 23:00:00,
2013-02-18 17:05:00,65.7,39.3,29.79,NW,315,8.5,19.7,38,0.00,,,0.00,WUHU216HW,2013-02-18 23:05:00,
2013-02-18 17:10:00,65.3,39.0,29.79,West,270,12.8,18.6,38,0.00,,,0.00,WUHU216HW,2013-02-18 23:10:00,
2013-02-18 17:16:00,65.0,39.3,29.80,NW,315,8.7,18.6,39,0.00,,,0.00,WUHU216HW,2013-02-18 23:16:00,
2013-02-18 17:21:00,64.6,39.1,29.80,WNW,293,15.9,16.1,39,0.00,,,0.00,WUHU216HW,2013-02-18 23:21:00,
2013-02-18 17:26:00,64.4,39.6,29.80,NW,315,10.5,17.7,40,0.00,,,0.00,WUHU216HW,2013-02-18 23:26:00,
2013-02-18 17:31:00,64.3,40.1,29.81,WNW,293,10.1,17.7,41,0.00,,,0.00,WUHU216HW,2013-02-18 23:31:00,
2013-02-18 17:36:00,63.9,39.2,29.81,NW,315,11.6,16.8,40,0.00,,,0.00,WUHU216HW,2013-02-18 23:36:00,
2013-02-18 17:41:00,63.7,39.0,29.81,NW,315,11.4,16.8,40,0.00,,,0.00,WUHU216HW,2013-02-18 23:41:00,
2013-02-18 17:50:00,63.0,38.9,29.82,NW,315,10.5,13.4,41,0.00,,,0.00,WUHU216HW,2013-02-18 23:50:00,
2013-02-18 17:55:00,62.6,39.2,29.83,WNW,293,14.5,14.5,42,0.00,,,0.00,WUHU216HW,2013-02-18 23:55:00,
2013-02-18 18:00:00,62.3,38.8,29.83,WNW,293,12.1,15.7,42,0.00,,,0.00,WUHU216HW,2013-02-19 00:00:00,
2013-02-18 18:05:00,61.9,39.1,29.83,WNW,293,8.9,15.7,43,0.00,,,0.00,WUHU216HW,2013-02-19 00:05:00,
2013-02-18 18:10:00,61.6,38.7,29.83,NW,315,11.4,15.0,43,0.00,,,0.00,WUHU216HW,2013-02-19 00:10:00,
2013-02-18 18:15:00,61.6,38.7,29.84,WNW,293,8.3,15.0,43,0.00,,,0.00,WUHU216HW,2013-02-19 00:15:00,
2013-02-18 18:20:00,61.2,38.4,29.84,NW,315,8.1,10.7,43,0.00,,,0.00,WUHU216HW,2013-02-19 00:20:00,
2013-02-18 18:26:00,61.0,38.8,29.85,NW,315,12.1,12.1,44,0.00,,,0.00,WUHU216HW,2013-02-19 00:26:00,
2013-02-18 18:31:00,60.8,38.7,29.86,NNW,338,6.9,12.3,44,0.00,,,0.00,WUHU216HW,2013-02-19 00:31:00,
2013-02-18 18:36:00,60.5,38.3,29.86,NW,315,8.1,12.3,44,0.00,,,0.00,WUHU216HW,2013-02-19 00:36:00,
2013-02-18 18:41:00,60.1,38.0,29.86,NW,315,9.6,10.7,44,0.00,,,0.00,WUHU216HW,2013-02-19 00:41:00,
2013-02-18 18:46:00,59.9,37.9,29.86,NW,315,12.3,12.3,44,0.00,,,0.00,WUHU216HW,2013-02-19 00:46:00,
2013-02-18 18:51:00,59.8,37.7,29.87,NNW,338,11.4,14.8,44,0.00,,,0.00,WUHU216HW,2013-02-19 00:51:00,
2013-02-18 18:56:00,59.4,37.4,29.87,NW,315,11.0,14.8,44,0.00,,,0.00,WUHU216HW,2013-02-19 00:56:00,
2013-02-18 19:01:00,59.2,37.2,29.88,NNW,338,7.2,12.8,44,0.00,,,0.00,WUHU216HW,2013-02-19 01:01:00,
2013-02-18 19:06:00,59.0,37.1,29.89,NW,315,5.8,12.1,44,0.00,,,0.00,WUHU216HW,2013-02-19 01:06:00,
2013-02-18 19:11:00,58.7,37.3,29.89,NW,315,8.9,11.4,45,0.00,,,0.00,WUHU216HW,2013-02-19 01:11:00,
2013-02-18 19:16:00,58.3,37.0,29.89,WNW,293,10.1,11.6,45,0.00,,,0.00,WUHU216HW,2013-02-19 01:16:00,
2013-02-18 19:21:00,58.1,36.8,29.90,NW,315,5.8,11.6,45,0.00,,,0.00,WUHU216HW,2013-02-19 01:21:00,
2013-02-18 19:26:00,58.0,36.6,29.90,NW,315,7.6,11.4,45,0.00,,,0.00,WUHU216HW,2013-02-19 01:26:00,
2013-02-18 19:31:00,57.8,36.5,29.90,North,0,10.3,11.9,45,0.00,,,0.00,WUHU216HW,2013-02-19 01:31:00,
2013-02-18 19:36:00,57.6,36.4,29.91,North,0,9.4,12.3,45,0.00,,,0.00,WUHU216HW,2013-02-19 01:36:00,
2013-02-18 19:41:00,57.4,36.7,29.91,NNW,338,6.5,12.3,46,0.00,,,0.00,WUHU216HW,2013-02-19 01:41:00,
2013-02-18 19:46:00,57.2,36.5,29.91,NW,315,8.5,11.4,46,0.00,,,0.00,WUHU216HW,2013-02-19 01:46:00,
2013-02-18 19:51:00,57.1,36.4,29.92,NW,315,9.8,11.4,46,0.00,,,0.00,WUHU216HW,2013-02-19 01:51:00,
2013-02-18 19:56:00,56.9,36.3,29.92,North,0,6.3,10.5,46,0.00,,,0.00,WUHU216HW,2013-02-19 01:56:00,
2013-02-18 20:01:00,56.5,36.5,29.93,NW,315,8.1,9.8,47,0.00,,,0.00,WUHU216HW,2013-02-19 02:01:00,
2013-02-18 20:06:00,56.5,36.5,29.93,NNW,338,6.0,9.2,47,0.00,,,0.00,WUHU216HW,2013-02-19 02:06:00,
2013-02-18 20:11:00,56.3,36.3,29.94,NW,315,6.3,10.1,47,0.00,,,0.00,WUHU216HW,2013-02-19 02:11:00,
2013-02-18 20:16:00,56.3,36.3,29.94,NW,315,7.2,10.1,47,0.00,,,0.00,WUHU216HW,2013-02-19 02:16:00,
2013-02-18 20:21:00,56.2,36.1,29.94,NW,315,5.4,9.6,47,0.00,,,0.00,WUHU216HW,2013-02-19 02:21:00,
2013-02-18 20:26:00,56.0,35.9,29.94,NW,315,6.9,9.2,47,0.00,,,0.00,WUHU216HW,2013-02-19 02:26:00,
2013-02-18 20:31:00,55.8,35.7,29.95,NNW,338,6.5,9.2,47,0.00,,,0.00,WUHU216HW,2013-02-19 02:31:00,
2013-02-18 20:36:00,55.6,35.6,29.95,NNW,338,6.0,8.5,47,0.00,,,0.00,WUHU216HW,2013-02-19 02:36:00,
2013-02-18 20:41:00,55.6,35.6,29.95,NNW,338,6.5,8.5,47,0.00,,,0.00,WUHU216HW,2013-02-19 02:41:00,
2013-02-18 20:46:00,55.4,35.4,29.95,NNW,338,6.3,8.5,47,0.00,,,0.00,WUHU216HW,2013-02-19 02:46:00,
2013-02-18 20:51:00,55.3,35.3,29.96,North,0,4.9,8.5,47,0.00,,,0.00,WUHU216HW,2013-02-19 02:51:00,
2013-02-18 20:56:00,55.1,35.6,29.96,NNW,338,1.8,7.4,48,0.00,,,0.00,WUHU216HW,2013-02-19 02:56:00,
2013-02-18 21:01:00,54.7,35.3,29.96,NW,315,3.1,5.8,48,0.00,,,0.00,WUHU216HW,2013-02-19 03:01:00,
2013-02-18 21:06:00,54.5,35.2,29.96,North,0,3.1,4.9,48,0.00,,,0.00,WUHU216HW,2013-02-19 03:06:00,
2013-02-18 21:12:00,54.4,35.0,29.96,NW,315,4.0,6.3,48,0.00,,,0.00,WUHU216HW,2013-02-19 03:12:00,
2013-02-18 21:17:00,54.0,34.7,29.96,NNW,338,2.7,6.3,48,0.00,,,0.00,WUHU216HW,2013-02-19 03:17:00,
2013-02-18 21:22:00,54.0,34.7,29.97,North,0,3.8,5.4,48,0.00,,,0.00,WUHU216HW,2013-02-19 03:22:00,
2013-02-18 21:27:00,53.8,34.5,29.97,NNW,338,3.6,6.7,48,0.00,,,0.00,WUHU216HW,2013-02-19 03:27:00,
2013-02-18 21:32:00,53.6,34.9,29.98,North,0,5.1,6.7,49,0.00,,,0.00,WUHU216HW,2013-02-19 03:32:00,
2013-02-18 21:37:00,53.6,34.9,29.98,NW,315,7.4,7.4,49,0.00,,,0.00,WUHU216HW,2013-02-19 03:37:00,
2013-02-18 21:42:00,53.3,34.6,29.98,North,0,4.0,7.4,49,0.00,,,0.00,WUHU216HW,2013-02-19 03:42:00,
2013-02-18 21:47:00,53.1,34.4,29.99,NNW,338,3.8,6.9,49,0.00,,,0.00,WUHU216HW,2013-02-19 03:47:00,
2013-02-18 21:52:00,52.9,34.8,29.99,NNW,338,3.4,6.9,50,0.00,,,0.00,WUHU216HW,2013-02-19 03:52:00,
2013-02-18 21:57:00,52.7,34.7,30.00,NNW,338,2.0,6.3,50,0.00,,,0.00,WUHU216HW,2013-02-19 03:57:00,
2013-02-18 22:02:00,52.6,34.5,30.00,NNW,338,3.6,4.9,50,0.00,,,0.00,WUHU216HW,2013-02-19 04:02:00,
2013-02-18 22:07:00,52.4,34.3,30.01,NNW,338,3.8,4.9,50,0.00,,,0.00,WUHU216HW,2013-02-19 04:07:00,
2013-02-18 22:12:00,52.2,34.7,30.01,NW,315,3.4,4.7,51,0.00,,,0.00,WUHU216HW,2013-02-19 04:12:00,
2013-02-18 22:17:00,52.2,34.7,30.01,NNW,338,4.0,4.7,51,0.00,,,0.00,WUHU216HW,2013-02-19 04:17:00,
2013-02-18 22:22:00,51.8,34.3,30.02,NW,315,3.4,4.7,51,0.00,,,0.00,WUHU216HW,2013-02-19 04:22:00,
2013-02-18 22:27:00,51.7,34.1,30.02,NW,315,3.1,5.8,51,0.00,,,0.00,WUHU216HW,2013-02-19 04:27:00,
2013-02-18 22:33:00,51.5,33.9,30.03,NW,315,3.4,6.9,51,0.00,,,0.00,WUHU216HW,2013-02-19 04:33:00,
2013-02-18 22:38:00,51.3,34.3,30.03,NNW,338,3.8,6.9,52,0.00,,,0.00,WUHU216HW,2013-02-19 04:38:00,
2013-02-18 22:43:00,50.9,33.9,30.03,NNW,338,5.4,5.4,52,0.00,,,0.00,WUHU216HW,2013-02-19 04:43:00,
2013-02-18 22:48:00,50.8,34.2,30.03,NNW,338,3.6,5.4,53,0.00,,,0.00,WUHU216HW,2013-02-19 04:48:00,
2013-02-18 22:53:00,50.4,33.9,30.03,NW,315,4.5,5.4,53,0.00,,,0.00,WUHU216HW,2013-02-19 04:53:00,
2013-02-18 22:58:00,50.2,34.2,30.04,NW,315,4.7,5.4,54,0.00,,,0.00,WUHU216HW,2013-02-19 04:58:00,
2013-02-18 23:00:00,50.2,34.2,30.04,NW,315,4.9,5.8,54,0.00,,,0.00,WUHU216HW,2013-02-19 05:00:00,
2013-02-18 23:01:00,50.2,34.2,30.04,NW,315,3.6,6.7,54,0.00,,,0.00,WUHU216HW,2013-02-19 05:01:00,
2013-02-18 23:06:00,50.0,34.0,30.04,NW,315,2.7,6.7,54,0.00,,,0.00,WUHU216HW,2013-02-19 05:06:00,
2013-02-18 23:11:00,49.9,33.8,30.04,NW,315,3.1,5.4,54,0.00,,,0.00,WUHU216HW,2013-02-19 05:11:00,
2013-02-18 23:16:00,49.9,33.8,30.04,NW,315,4.5,5.4,54,0.00,,,0.00,WUHU216HW,2013-02-19 05:16:00,
2013-02-18 23:21:00,49.7,34.1,30.04,NNW,338,2.5,5.4,55,0.00,,,0.00,WUHU216HW,2013-02-19 05:21:00,
2013-02-18 23:26:00,49.5,33.9,30.04,West,270,3.1,5.4,55,0.00,,,0.00,WUHU216HW,2013-02-19 05:26:00,
2013-02-18 23:31:00,49.3,33.8,30.04,NW,315,4.0,5.4,55,0.00,,,0.00,WUHU216HW,2013-02-19 05:31:00,
2013-02-18 23:36:00,49.3,33.8,30.04,NW,315,4.0,5.4,55,0.00,,,0.00,WUHU216HW,2013-02-19 05:36:00,
2013-02-18 23:41:00,49.1,33.7,30.04,NNW,338,3.4,4.3,55,0.00,,,0.00,WUHU216HW,2013-02-19 05:41:00,
2013-02-18 23:46:00,48.8,33.8,30.04,NNW,338,2.5,4.5,56,0.00,,,0.00,WUHU216HW,2013-02-19 05:46:00,
2013-02-18 23:51:00,48.6,33.6,30.04,North,0,4.0,4.5,56,0.00,,,0.00,WUHU216HW,2013-02-19 05:51:00,
2013-02-18 23:56:00,48.6,33.6,30.04,NW,315,4.5,4.5,56,0.00,,,0.00,WUHU216HW,2013-02-19 05:56:00,